GAOFEN-11 01

Last updated on Sun Aug 31 2025 00:02:31 GMT+0000 (Coordinated Universal Time)

1 43585U 18063A 25242.30420935 .00016401 00000+0 34497-3 0 9995 2 43585 97.1720 306.3147 0004869 337.4428 22.6607 15.45368459395274
UTC large
Height (km)
Speed (km/s)
/
Latitude / Longitude
Inclination (degrees)
Orbital Period (minutes)
Azimuth
Elevation
Range (km)
Doppler Factor

Next 0 passes for location: London (51.5072 / 0.1276)

Sorry there are no passes over London.